Year,Month,Day,Hour,Minute,Value (Times are PST for temperature in C)
2012,05,25,00,00,10.60
2012,05,25,00,01,10.60
2012,05,25,00,02,10.50
2012,05,25,00,03,10.50
2012,05,25,00,04,10.50
2012,05,25,00,05,10.50
2012,05,25,00,06,10.50
2012,05,25,00,07,10.50
2012,05,25,00,08,10.50
2012,05,25,00,09,10.40
2012,05,25,00,10,10.40
2012,05,25,00,11,10.40
2012,05,25,00,12,10.40
2012,05,25,00,13,10.40
2012,05,25,00,14,10.30
2012,05,25,00,15,10.30
2012,05,25,00,16,10.30
2012,05,25,00,17,10.30
2012,05,25,00,18,10.30
2012,05,25,00,19,10.30
2012,05,25,00,20,10.30
2012,05,25,00,21,10.30
2012,05,25,00,22,10.30
2012,05,25,00,23,10.30
2012,05,25,00,24,10.30
2012,05,25,00,25,10.20
2012,05,25,00,26,10.20
2012,05,25,00,27,10.20
2012,05,25,00,28,10.20
2012,05,25,00,29,10.20
2012,05,25,00,30,10.20
2012,05,25,00,31,10.20
2012,05,25,00,32,10.10
2012,05,25,00,33,10.10
2012,05,25,00,34,10.10
2012,05,25,00,35,10.10
2012,05,25,00,36,10.10
2012,05,25,00,37,10.10
2012,05,25,00,38,10.10
2012,05,25,00,39,10.10
2012,05,25,00,40,10.10
2012,05,25,00,41,10.00
2012,05,25,00,42,10.00
2012,05,25,00,43,10.00
2012,05,25,00,44,10.00
2012,05,25,00,45,10.00
2012,05,25,00,46,10.00
2012,05,25,00,47,10.00
2012,05,25,00,48,10.00
2012,05,25,00,49,10.00
2012,05,25,00,50,10.00
2012,05,25,00,51,9.90
2012,05,25,00,52,9.90
2012,05,25,00,53,9.90
2012,05,25,00,54,9.90
2012,05,25,00,55,9.90
2012,05,25,00,56,9.90
2012,05,25,00,57,9.90
2012,05,25,00,58,9.90
2012,05,25,00,59,9.90
2012,05,25,01,00,9.90
2012,05,25,01,01,9.90
2012,05,25,01,02,9.90
2012,05,25,01,03,9.90
2012,05,25,01,04,9.90
2012,05,25,01,05,9.90
2012,05,25,01,06,9.90
2012,05,25,01,07,9.90
2012,05,25,01,08,9.90
2012,05,25,01,09,9.90
2012,05,25,01,10,9.90
2012,05,25,01,11,9.90
2012,05,25,01,12,9.80
2012,05,25,01,13,9.80
2012,05,25,01,14,9.80
2012,05,25,01,15,9.80
2012,05,25,01,16,9.80
2012,05,25,01,17,9.80
2012,05,25,01,18,9.80
2012,05,25,01,19,9.80
2012,05,25,01,20,9.80
2012,05,25,01,21,9.80
2012,05,25,01,22,9.70
2012,05,25,01,23,9.70
2012,05,25,01,24,9.70
2012,05,25,01,25,9.70
2012,05,25,01,26,9.70
2012,05,25,01,27,9.70
2012,05,25,01,28,9.60
2012,05,25,01,29,9.60
2012,05,25,01,30,9.60
2012,05,25,01,31,9.60
2012,05,25,01,32,9.60
2012,05,25,01,33,9.60
2012,05,25,01,34,9.60
2012,05,25,01,35,9.60
2012,05,25,01,36,9.60
2012,05,25,01,37,9.60
2012,05,25,01,38,9.60
2012,05,25,01,39,9.50
2012,05,25,01,40,9.50
2012,05,25,01,41,9.50
2012,05,25,01,42,9.50
2012,05,25,01,43,9.50
2012,05,25,01,44,9.50
2012,05,25,01,45,9.50
2012,05,25,01,46,9.50
2012,05,25,01,47,9.50
2012,05,25,01,48,9.50
2012,05,25,01,49,9.50
2012,05,25,01,50,9.50
2012,05,25,01,51,9.50
2012,05,25,01,52,9.50
2012,05,25,01,53,9.50
2012,05,25,01,54,9.50
2012,05,25,01,55,9.50
2012,05,25,01,56,9.40
2012,05,25,01,57,9.40
2012,05,25,01,58,9.40
2012,05,25,01,59,9.40
2012,05,25,02,00,9.40
2012,05,25,02,01,9.40
2012,05,25,02,02,9.40
2012,05,25,02,03,9.30
2012,05,25,02,04,9.30
2012,05,25,02,05,9.30
2012,05,25,02,06,9.30
2012,05,25,02,07,9.30
2012,05,25,02,08,9.30
2012,05,25,02,09,9.30
2012,05,25,02,10,9.30
2012,05,25,02,11,9.30
2012,05,25,02,12,9.30
2012,05,25,02,13,9.30
2012,05,25,02,14,9.30
2012,05,25,02,15,9.30
2012,05,25,02,16,9.30
2012,05,25,02,17,9.20
2012,05,25,02,18,9.20
2012,05,25,02,19,9.20
2012,05,25,02,20,9.20
2012,05,25,02,21,9.20
2012,05,25,02,22,9.20
2012,05,25,02,23,9.20
2012,05,25,02,24,9.20
2012,05,25,02,25,9.20
2012,05,25,02,26,9.20
2012,05,25,02,27,9.20
2012,05,25,02,28,9.10
2012,05,25,02,29,9.10
2012,05,25,02,30,9.10
2012,05,25,02,31,9.10
2012,05,25,02,32,9.10
2012,05,25,02,33,9.10
2012,05,25,02,34,9.10
2012,05,25,02,35,9.10
2012,05,25,02,36,9.10
2012,05,25,02,37,9.00
2012,05,25,02,38,9.00
2012,05,25,02,39,9.00
2012,05,25,02,40,9.00
2012,05,25,02,41,9.00
2012,05,25,02,42,9.00
2012,05,25,02,43,9.00
2012,05,25,02,44,9.00
2012,05,25,02,45,8.90
2012,05,25,02,46,8.90
2012,05,25,02,47,8.90
2012,05,25,02,48,8.90
2012,05,25,02,49,8.80
2012,05,25,02,50,8.80
2012,05,25,02,51,8.80
2012,05,25,02,52,8.80
2012,05,25,02,53,8.70
2012,05,25,02,54,8.70
2012,05,25,02,55,8.70
2012,05,25,02,56,8.70
2012,05,25,02,57,8.60
2012,05,25,02,58,8.60
2012,05,25,02,59,8.60
2012,05,25,03,00,8.60
2012,05,25,03,01,8.50
2012,05,25,03,02,8.50
2012,05,25,03,03,8.50
2012,05,25,03,04,8.40
2012,05,25,03,05,8.40
2012,05,25,03,06,8.40
2012,05,25,03,07,8.40
2012,05,25,03,08,8.40
2012,05,25,03,09,8.40
2012,05,25,03,10,8.40
2012,05,25,03,11,8.40
2012,05,25,03,12,8.30
2012,05,25,03,13,8.30
2012,05,25,03,14,8.30
2012,05,25,03,15,8.30
2012,05,25,03,16,8.30
2012,05,25,03,17,8.30
2012,05,25,03,18,8.20
2012,05,25,03,19,8.20
2012,05,25,03,20,8.20
2012,05,25,03,21,8.20
2012,05,25,03,22,8.20
2012,05,25,03,23,8.20
2012,05,25,03,24,8.20
2012,05,25,03,25,8.10
2012,05,25,03,26,8.10
2012,05,25,03,27,8.10
2012,05,25,03,28,8.10
2012,05,25,03,29,8.10
2012,05,25,03,30,8.00
2012,05,25,03,31,8.00
2012,05,25,03,32,8.00
2012,05,25,03,33,8.00
2012,05,25,03,34,8.00
2012,05,25,03,35,8.00
2012,05,25,03,36,8.00
2012,05,25,03,37,8.00
2012,05,25,03,38,7.90
2012,05,25,03,39,7.90
2012,05,25,03,40,7.90
2012,05,25,03,41,7.90
2012,05,25,03,42,7.90
2012,05,25,03,43,7.90
2012,05,25,03,44,8.00
2012,05,25,03,45,8.00
2012,05,25,03,46,8.00
2012,05,25,03,47,8.00
2012,05,25,03,48,8.00
2012,05,25,03,49,8.00
2012,05,25,03,50,8.00
2012,05,25,03,51,8.00
2012,05,25,03,52,8.00
2012,05,25,03,53,8.00
2012,05,25,03,54,8.00
2012,05,25,03,55,8.00
2012,05,25,03,56,8.00
2012,05,25,03,57,7.90
2012,05,25,03,58,7.90
2012,05,25,03,59,7.90
2012,05,25,04,00,7.90
2012,05,25,04,01,7.90
2012,05,25,04,02,7.90
2012,05,25,04,03,7.90
2012,05,25,04,04,7.90
2012,05,25,04,05,7.90
2012,05,25,04,06,7.90
2012,05,25,04,07,7.90
2012,05,25,04,08,7.90
2012,05,25,04,09,7.90
2012,05,25,04,10,7.90
2012,05,25,04,11,7.90
2012,05,25,04,12,7.90
2012,05,25,04,13,7.90
2012,05,25,04,14,7.80
2012,05,25,04,15,7.80
2012,05,25,04,16,7.80
2012,05,25,04,17,7.80
2012,05,25,04,18,7.80
2012,05,25,04,19,7.70
2012,05,25,04,20,7.70
2012,05,25,04,21,7.70
2012,05,25,04,22,7.70
2012,05,25,04,23,7.70
2012,05,25,04,24,7.70
2012,05,25,04,25,7.60
2012,05,25,04,26,7.60
2012,05,25,04,27,7.60
2012,05,25,04,28,7.60
2012,05,25,04,29,7.60
2012,05,25,04,30,7.60
2012,05,25,04,31,7.60
2012,05,25,04,32,7.60
2012,05,25,04,33,7.60
2012,05,25,04,34,7.60
2012,05,25,04,35,7.60
2012,05,25,04,36,7.50
2012,05,25,04,37,7.50
2012,05,25,04,38,7.50
2012,05,25,04,39,7.50
2012,05,25,04,40,7.40
2012,05,25,04,41,7.40
2012,05,25,04,42,7.40
2012,05,25,04,43,7.40
2012,05,25,04,44,7.40
2012,05,25,04,45,7.30
2012,05,25,04,46,7.30
2012,05,25,04,47,7.30
2012,05,25,04,48,7.30
2012,05,25,04,49,7.30
2012,05,25,04,50,7.30
2012,05,25,04,51,7.20
2012,05,25,04,52,7.20
2012,05,25,04,53,7.20
2012,05,25,04,54,7.20
2012,05,25,04,55,7.20
2012,05,25,04,56,7.20
2012,05,25,04,57,7.20
2012,05,25,04,58,7.20
2012,05,25,04,59,7.20
2012,05,25,05,00,7.20
2012,05,25,05,01,7.20
2012,05,25,05,02,7.20
2012,05,25,05,03,7.20
2012,05,25,05,04,7.20
2012,05,25,05,05,7.20
2012,05,25,05,06,7.20
2012,05,25,05,07,7.10
2012,05,25,05,08,7.10
2012,05,25,05,09,7.10
2012,05,25,05,10,7.10
2012,05,25,05,11,7.10
2012,05,25,05,12,7.10
2012,05,25,05,13,7.10
2012,05,25,05,14,7.10
2012,05,25,05,15,7.00
2012,05,25,05,16,7.00
2012,05,25,05,17,7.00
2012,05,25,05,18,7.00
2012,05,25,05,19,7.00
2012,05,25,05,20,7.00
2012,05,25,05,21,7.00
2012,05,25,05,22,7.00
2012,05,25,05,23,7.00
2012,05,25,05,24,7.00
2012,05,25,05,25,7.00
2012,05,25,05,26,7.00
2012,05,25,05,27,7.00
2012,05,25,05,28,7.00
2012,05,25,05,29,7.00
2012,05,25,05,30,7.00
2012,05,25,05,31,7.00
2012,05,25,05,32,7.00
2012,05,25,05,33,7.00
2012,05,25,05,34,7.00
2012,05,25,05,35,7.00
2012,05,25,05,36,7.00
2012,05,25,05,37,7.00
2012,05,25,05,38,7.00
2012,05,25,05,39,7.00
2012,05,25,05,40,7.00
2012,05,25,05,41,7.00
2012,05,25,05,42,7.00
2012,05,25,05,43,7.00
2012,05,25,05,44,7.00
2012,05,25,05,45,7.00
2012,05,25,05,46,7.00
2012,05,25,05,47,7.00
2012,05,25,05,48,7.00
2012,05,25,05,49,7.10
2012,05,25,05,50,7.00
2012,05,25,05,51,7.00
2012,05,25,05,52,7.10
2012,05,25,05,53,7.10
2012,05,25,05,54,7.10
2012,05,25,05,55,7.10
2012,05,25,05,56,7.10
2012,05,25,05,57,7.10
2012,05,25,05,58,7.20
2012,05,25,05,59,7.20
2012,05,25,06,00,7.20
2012,05,25,06,01,7.20
2012,05,25,06,02,7.20
2012,05,25,06,03,7.20
2012,05,25,06,04,7.20
2012,05,25,06,05,7.20
2012,05,25,06,06,7.20
2012,05,25,06,07,7.30
2012,05,25,06,08,7.30
2012,05,25,06,09,7.30
2012,05,25,06,10,7.30
2012,05,25,06,11,7.40
2012,05,25,06,12,7.40
2012,05,25,06,13,7.40
2012,05,25,06,14,7.50
2012,05,25,06,15,7.50
2012,05,25,06,16,7.50
2012,05,25,06,17,7.60
2012,05,25,06,18,7.60
2012,05,25,06,19,7.60
2012,05,25,06,20,7.60
2012,05,25,06,21,7.60
2012,05,25,06,22,7.70
2012,05,25,06,23,7.70
2012,05,25,06,24,7.70
2012,05,25,06,25,7.80
2012,05,25,06,26,7.80
2012,05,25,06,27,7.90
2012,05,25,06,28,8.00
2012,05,25,06,29,8.00
2012,05,25,06,30,8.10
2012,05,25,06,31,8.20
2012,05,25,06,32,8.20
2012,05,25,06,33,8.30
2012,05,25,06,34,8.30
2012,05,25,06,35,8.40
2012,05,25,06,36,8.50
2012,05,25,06,37,8.50
2012,05,25,06,38,8.60
2012,05,25,06,39,8.70
2012,05,25,06,40,8.70
2012,05,25,06,41,8.80
2012,05,25,06,42,8.90
2012,05,25,06,43,8.90
2012,05,25,06,44,9.00
2012,05,25,06,45,9.10
2012,05,25,06,46,9.20
2012,05,25,06,47,9.30
2012,05,25,06,48,9.40
2012,05,25,06,49,9.50
2012,05,25,06,50,9.50
2012,05,25,06,51,9.60
2012,05,25,06,52,9.60
2012,05,25,06,53,9.70
2012,05,25,06,54,9.70
2012,05,25,06,55,9.80
2012,05,25,06,56,9.80
2012,05,25,06,57,9.90
2012,05,25,06,58,9.90
2012,05,25,06,59,9.90
2012,05,25,07,00,10.00
2012,05,25,07,01,10.00
2012,05,25,07,02,10.00
2012,05,25,07,03,10.00
2012,05,25,07,04,10.10
2012,05,25,07,05,10.10
2012,05,25,07,06,10.00
2012,05,25,07,07,10.00
2012,05,25,07,08,10.00
2012,05,25,07,09,10.00
2012,05,25,07,10,10.00
2012,05,25,07,11,10.00
2012,05,25,07,12,10.00
2012,05,25,07,13,10.00
2012,05,25,07,14,10.10
2012,05,25,07,15,10.10
2012,05,25,07,16,10.10
2012,05,25,07,17,10.20
2012,05,25,07,18,10.20
2012,05,25,07,19,10.20
2012,05,25,07,20,10.30
2012,05,25,07,21,10.40
2012,05,25,07,22,10.40
2012,05,25,07,23,10.50
2012,05,25,07,24,10.50
2012,05,25,07,25,10.60
2012,05,25,07,26,10.70
2012,05,25,07,27,10.70
2012,05,25,07,28,10.70
2012,05,25,07,29,10.70
2012,05,25,07,30,10.70
2012,05,25,07,31,10.80
2012,05,25,07,32,10.80
2012,05,25,07,33,10.80
2012,05,25,07,34,10.80
2012,05,25,07,35,10.80
2012,05,25,07,36,10.90
2012,05,25,07,37,10.90
2012,05,25,07,38,11.00
2012,05,25,07,39,11.00
2012,05,25,07,40,11.10
2012,05,25,07,41,11.10
2012,05,25,07,42,11.20
2012,05,25,07,43,11.30
2012,05,25,07,44,11.30
2012,05,25,07,45,11.40
2012,05,25,07,46,11.50
2012,05,25,07,47,11.60
2012,05,25,07,48,11.80
2012,05,25,07,49,11.90
2012,05,25,07,50,12.10
2012,05,25,07,51,12.20
2012,05,25,07,52,12.30
2012,05,25,07,53,12.30
2012,05,25,07,54,12.40
2012,05,25,07,55,12.40
2012,05,25,07,56,12.50
2012,05,25,07,57,12.60
2012,05,25,07,58,12.70
2012,05,25,07,59,12.80
2012,05,25,08,00,12.90
2012,05,25,08,01,12.90
2012,05,25,08,02,13.00
2012,05,25,08,03,13.10
2012,05,25,08,04,13.10
2012,05,25,08,05,13.20
2012,05,25,08,06,13.20
2012,05,25,08,07,13.30
2012,05,25,08,08,13.30
2012,05,25,08,09,13.30
2012,05,25,08,10,13.30
2012,05,25,08,11,13.30
2012,05,25,08,12,13.40
2012,05,25,08,13,13.50
2012,05,25,08,14,13.50
2012,05,25,08,15,13.60
2012,05,25,08,16,13.60
2012,05,25,08,17,13.60
2012,05,25,08,18,13.70
2012,05,25,08,19,13.80
2012,05,25,08,20,13.90
2012,05,25,08,21,14.00
2012,05,25,08,22,14.10
2012,05,25,08,23,14.20
2012,05,25,08,24,14.20
2012,05,25,08,25,14.30
2012,05,25,08,26,14.30
2012,05,25,08,27,14.40
2012,05,25,08,28,14.50
2012,05,25,08,29,14.60
2012,05,25,08,30,14.60
2012,05,25,08,31,14.60
2012,05,25,08,32,14.70
2012,05,25,08,33,14.70
2012,05,25,08,34,14.80
2012,05,25,08,35,14.90
2012,05,25,08,36,15.00
2012,05,25,08,37,15.00
2012,05,25,08,38,15.00
2012,05,25,08,39,15.00
2012,05,25,08,40,15.00
2012,05,25,08,41,15.00
2012,05,25,08,42,15.00
2012,05,25,08,43,15.10
2012,05,25,08,44,15.20
2012,05,25,08,45,15.30
2012,05,25,08,46,15.30
2012,05,25,08,47,15.40
2012,05,25,08,48,15.50
2012,05,25,08,49,15.60
2012,05,25,08,50,15.70
2012,05,25,08,51,15.70
2012,05,25,08,52,15.70
2012,05,25,08,53,15.70
2012,05,25,08,54,15.70
2012,05,25,08,55,15.70
2012,05,25,08,56,15.70
2012,05,25,08,57,15.70
2012,05,25,08,58,15.70
2012,05,25,08,59,15.70
2012,05,25,09,00,15.70
2012,05,25,09,01,15.70
2012,05,25,09,02,15.80
2012,05,25,09,03,15.80
2012,05,25,09,04,15.80
2012,05,25,09,05,15.80
2012,05,25,09,06,15.80
2012,05,25,09,07,15.90
2012,05,25,09,08,16.00
2012,05,25,09,09,16.00
2012,05,25,09,10,16.10
2012,05,25,09,11,16.10
2012,05,25,09,12,16.00
2012,05,25,09,13,16.00
2012,05,25,09,14,16.00
2012,05,25,09,15,15.90
2012,05,25,09,16,15.90
2012,05,25,09,17,15.80
2012,05,25,09,18,15.80
2012,05,25,09,19,15.80
2012,05,25,09,20,15.90
2012,05,25,09,21,15.90
2012,05,25,09,22,15.90
2012,05,25,09,23,15.90
2012,05,25,09,24,15.80
2012,05,25,09,25,15.80
2012,05,25,09,26,15.70
2012,05,25,09,27,15.80
2012,05,25,09,28,15.80
2012,05,25,09,29,15.80
2012,05,25,09,30,15.90
2012,05,25,09,31,15.90
2012,05,25,09,32,15.90
2012,05,25,09,33,15.90
2012,05,25,09,34,15.90
2012,05,25,09,35,16.00
2012,05,25,09,36,16.00
2012,05,25,09,37,16.00
2012,05,25,09,38,16.00
2012,05,25,09,39,16.00
2012,05,25,09,40,15.90
2012,05,25,09,41,16.00
2012,05,25,09,42,16.00
2012,05,25,09,43,16.10
2012,05,25,09,44,16.10
2012,05,25,09,45,16.20
2012,05,25,09,46,16.20
2012,05,25,09,47,16.20
2012,05,25,09,48,16.20
2012,05,25,09,49,16.20
2012,05,25,09,50,16.20
2012,05,25,09,51,16.20
2012,05,25,09,52,16.10
2012,05,25,09,53,16.10
2012,05,25,09,54,16.10
2012,05,25,09,55,16.10
2012,05,25,09,56,16.00
2012,05,25,09,57,16.00
2012,05,25,09,58,15.90
2012,05,25,09,59,15.90
2012,05,25,10,00,15.80
2012,05,25,10,01,15.70
2012,05,25,10,02,15.80
2012,05,25,10,03,15.80
2012,05,25,10,04,15.80
2012,05,25,10,05,15.80
2012,05,25,10,06,15.90
2012,05,25,10,07,16.00
2012,05,25,10,08,16.00
2012,05,25,10,09,16.00
2012,05,25,10,10,16.10
2012,05,25,10,11,16.00
2012,05,25,10,12,16.00
2012,05,25,10,13,16.00
2012,05,25,10,14,16.00
2012,05,25,10,15,16.00
2012,05,25,10,16,16.10
2012,05,25,10,17,16.10
2012,05,25,10,18,16.10
2012,05,25,10,19,16.20
2012,05,25,10,20,16.20
2012,05,25,10,21,16.20
2012,05,25,10,22,16.30
2012,05,25,10,23,16.30
2012,05,25,10,24,16.20
2012,05,25,10,25,16.20
2012,05,25,10,26,16.20
2012,05,25,10,27,16.10
2012,05,25,10,28,16.20
2012,05,25,10,29,16.20
2012,05,25,10,30,16.30
2012,05,25,10,31,16.40
2012,05,25,10,32,16.50
2012,05,25,10,33,16.60
2012,05,25,10,34,16.60
2012,05,25,10,35,16.70
2012,05,25,10,36,16.80
2012,05,25,10,37,16.90
2012,05,25,10,38,17.00
2012,05,25,10,39,17.10
2012,05,25,10,40,17.20
2012,05,25,10,41,17.30
2012,05,25,10,42,17.40
2012,05,25,10,43,17.50
2012,05,25,10,44,17.50
2012,05,25,10,45,17.60
2012,05,25,10,46,17.70
2012,05,25,10,47,17.70
2012,05,25,10,48,17.80
2012,05,25,10,49,17.80
2012,05,25,10,50,17.80
2012,05,25,10,51,17.80
2012,05,25,10,52,17.80
2012,05,25,10,53,17.80
2012,05,25,10,54,17.80
2012,05,25,10,55,17.90
2012,05,25,10,56,18.00
2012,05,25,10,57,18.00
2012,05,25,10,58,18.10
2012,05,25,10,59,18.10
2012,05,25,11,00,18.10
2012,05,25,11,01,18.20
2012,05,25,11,02,18.20
2012,05,25,11,03,18.30
2012,05,25,11,04,18.30
2012,05,25,11,05,18.30
2012,05,25,11,06,18.30
2012,05,25,11,07,18.30
2012,05,25,11,08,18.20
2012,05,25,11,09,18.20
2012,05,25,11,10,18.20
2012,05,25,11,11,18.20
2012,05,25,11,12,18.20
2012,05,25,11,13,18.30
2012,05,25,11,14,18.30
2012,05,25,11,15,18.30
2012,05,25,11,16,18.30
2012,05,25,11,17,18.30
2012,05,25,11,18,18.30
2012,05,25,11,19,18.30
2012,05,25,11,20,18.30
2012,05,25,11,21,18.30
2012,05,25,11,22,18.30
2012,05,25,11,23,18.30
2012,05,25,11,24,18.30
2012,05,25,11,25,18.20
2012,05,25,11,26,18.20
2012,05,25,11,27,18.20
2012,05,25,11,28,18.20
2012,05,25,11,29,18.20
2012,05,25,11,30,18.20
2012,05,25,11,31,18.20
2012,05,25,11,32,18.30
2012,05,25,11,33,18.30
2012,05,25,11,34,18.30
2012,05,25,11,35,18.40
2012,05,25,11,36,18.50
2012,05,25,11,37,18.50
2012,05,25,11,38,18.60
2012,05,25,11,39,18.70
2012,05,25,11,40,18.80
2012,05,25,11,41,18.80
2012,05,25,11,42,18.90
2012,05,25,11,43,19.00
2012,05,25,11,44,19.00
2012,05,25,11,45,19.10
2012,05,25,11,46,19.10
2012,05,25,11,47,19.20
2012,05,25,11,48,19.20
2012,05,25,11,49,19.20
2012,05,25,11,50,19.10
2012,05,25,11,51,19.00
2012,05,25,11,52,19.00
2012,05,25,11,53,18.90
2012,05,25,11,54,18.90
2012,05,25,11,55,18.90
2012,05,25,11,56,18.90
2012,05,25,11,57,18.90
2012,05,25,11,58,18.90
2012,05,25,11,59,19.00
2012,05,25,12,00,19.00
2012,05,25,12,01,19.10
2012,05,25,12,02,19.20
2012,05,25,12,03,19.30
2012,05,25,12,04,19.40
2012,05,25,12,05,19.50
2012,05,25,12,06,19.60
2012,05,25,12,07,19.60
2012,05,25,12,08,19.60
2012,05,25,12,09,19.50
2012,05,25,12,10,19.40
2012,05,25,12,11,19.30
2012,05,25,12,12,19.10
2012,05,25,12,13,18.90
2012,05,25,12,14,18.90
2012,05,25,12,15,18.80
2012,05,25,12,16,18.90
2012,05,25,12,17,18.90
2012,05,25,12,18,18.80
2012,05,25,12,19,18.70
2012,05,25,12,20,18.70
2012,05,25,12,21,18.70
2012,05,25,12,22,18.80
2012,05,25,12,23,18.80
2012,05,25,12,24,18.80
2012,05,25,12,25,18.80
2012,05,25,12,26,18.80
2012,05,25,12,27,18.70
2012,05,25,12,28,18.60
2012,05,25,12,29,18.50
2012,05,25,12,30,18.40
2012,05,25,12,31,18.30
2012,05,25,12,32,18.20
2012,05,25,12,33,18.10
2012,05,25,12,34,18.10
2012,05,25,12,35,18.10
2012,05,25,12,36,18.10
2012,05,25,12,37,18.00
2012,05,25,12,38,17.90
2012,05,25,12,39,17.90
2012,05,25,12,40,17.90
2012,05,25,12,41,17.90
2012,05,25,12,42,17.90
2012,05,25,12,43,18.00
2012,05,25,12,44,18.00
2012,05,25,12,45,18.10
2012,05,25,12,46,18.10
2012,05,25,12,47,18.10
2012,05,25,12,48,18.10
2012,05,25,12,49,18.20
2012,05,25,12,50,18.20
2012,05,25,12,51,18.20
2012,05,25,12,52,18.20
2012,05,25,12,53,18.30
2012,05,25,12,54,18.30
2012,05,25,12,55,18.30
2012,05,25,12,56,18.30
2012,05,25,12,57,18.30
2012,05,25,12,58,18.30
2012,05,25,12,59,18.40
2012,05,25,13,00,18.50
2012,05,25,13,01,18.50
2012,05,25,13,02,18.50
2012,05,25,13,03,18.60
2012,05,25,13,04,18.70
2012,05,25,13,05,18.80
2012,05,25,13,06,18.80
2012,05,25,13,07,18.90
2012,05,25,13,08,18.90
2012,05,25,13,09,18.90
2012,05,25,13,10,19.00
2012,05,25,13,11,19.10
2012,05,25,13,12,19.20
2012,05,25,13,13,19.20
2012,05,25,13,14,19.30
2012,05,25,13,15,19.30
2012,05,25,13,16,19.30
2012,05,25,13,17,19.40
2012,05,25,13,18,19.30
2012,05,25,13,19,19.30
2012,05,25,13,20,19.20
2012,05,25,13,21,19.20
2012,05,25,13,22,19.30
2012,05,25,13,23,19.30
2012,05,25,13,24,19.30
2012,05,25,13,25,19.30
2012,05,25,13,26,19.30
2012,05,25,13,27,19.20
2012,05,25,13,28,19.10
2012,05,25,13,29,19.00
2012,05,25,13,30,18.90
2012,05,25,13,31,18.70
2012,05,25,13,32,18.70
2012,05,25,13,33,18.70
2012,05,25,13,34,18.70
2012,05,25,13,35,18.70
2012,05,25,13,36,18.80
2012,05,25,13,37,18.80
2012,05,25,13,38,18.90
2012,05,25,13,39,19.00
2012,05,25,13,40,19.00
2012,05,25,13,41,19.20
2012,05,25,13,42,19.30
2012,05,25,13,43,19.50
2012,05,25,13,44,19.60
2012,05,25,13,45,19.80
2012,05,25,13,46,19.90
2012,05,25,13,47,20.00
2012,05,25,13,48,20.10
2012,05,25,13,49,20.20
2012,05,25,13,50,20.30
2012,05,25,13,51,20.40
2012,05,25,13,52,20.60
2012,05,25,13,53,20.70
2012,05,25,13,54,20.80
2012,05,25,13,55,20.80
2012,05,25,13,56,20.90
2012,05,25,13,57,21.00
2012,05,25,13,58,21.10
2012,05,25,13,59,21.10
2012,05,25,14,00,21.10
2012,05,25,14,01,21.10
2012,05,25,14,02,21.10
2012,05,25,14,03,21.00
2012,05,25,14,04,21.00
2012,05,25,14,05,21.00
2012,05,25,14,06,21.00
2012,05,25,14,07,21.10
2012,05,25,14,08,21.20
2012,05,25,14,09,21.30
2012,05,25,14,10,21.40
2012,05,25,14,11,21.60
2012,05,25,14,12,21.70
2012,05,25,14,13,21.80
2012,05,25,14,14,21.80
2012,05,25,14,15,21.90
2012,05,25,14,16,22.00
2012,05,25,14,17,22.00
2012,05,25,14,18,22.10
2012,05,25,14,19,22.10
2012,05,25,14,20,22.20
2012,05,25,14,21,22.20
2012,05,25,14,22,22.20
2012,05,25,14,23,22.30
2012,05,25,14,24,22.30
2012,05,25,14,25,22.40
2012,05,25,14,26,22.40
2012,05,25,14,27,22.40
2012,05,25,14,28,22.40
2012,05,25,14,29,22.40
2012,05,25,14,30,22.40
2012,05,25,14,31,22.50
2012,05,25,14,32,22.60
2012,05,25,14,33,22.60
2012,05,25,14,34,22.60
2012,05,25,14,35,22.60
2012,05,25,14,36,22.60
2012,05,25,14,37,22.60
2012,05,25,14,38,22.60
2012,05,25,14,39,22.70
2012,05,25,14,40,22.70
2012,05,25,14,41,22.80
2012,05,25,14,42,22.80
2012,05,25,14,43,22.80
2012,05,25,14,44,22.80
2012,05,25,14,45,22.80
2012,05,25,14,46,22.70
2012,05,25,14,47,22.70
2012,05,25,14,48,22.80
2012,05,25,14,49,22.70
2012,05,25,14,50,22.70
2012,05,25,14,51,22.70
2012,05,25,14,52,22.70
2012,05,25,14,53,22.70
2012,05,25,14,54,22.70
2012,05,25,14,55,22.80
2012,05,25,14,56,22.80
2012,05,25,14,57,22.90
2012,05,25,14,58,23.00
2012,05,25,14,59,23.10
2012,05,25,15,00,23.10
2012,05,25,15,01,23.20
2012,05,25,15,02,23.10
2012,05,25,15,03,23.10
2012,05,25,15,04,23.10
2012,05,25,15,05,23.20
2012,05,25,15,06,23.20
2012,05,25,15,07,23.20
2012,05,25,15,08,23.20
2012,05,25,15,09,23.20
2012,05,25,15,10,23.30
2012,05,25,15,11,23.30
2012,05,25,15,12,23.40
2012,05,25,15,13,23.40
2012,05,25,15,14,23.40
2012,05,25,15,15,23.40
2012,05,25,15,16,23.30
2012,05,25,15,17,23.30
2012,05,25,15,18,23.30
2012,05,25,15,19,23.40
2012,05,25,15,20,23.40
2012,05,25,15,21,23.40
2012,05,25,15,22,23.40
2012,05,25,15,23,23.40
2012,05,25,15,24,23.30
2012,05,25,15,25,22.90
2012,05,25,15,26,22.50
2012,05,25,15,27,22.30
2012,05,25,15,28,22.20
2012,05,25,15,29,22.20
2012,05,25,15,30,22.10
2012,05,25,15,31,21.90
2012,05,25,15,32,21.80
2012,05,25,15,33,21.70
2012,05,25,15,34,21.50
2012,05,25,15,35,21.30
2012,05,25,15,36,21.20
2012,05,25,15,37,21.10
2012,05,25,15,38,21.00
2012,05,25,15,39,21.00
2012,05,25,15,40,21.00
2012,05,25,15,41,21.00
2012,05,25,15,42,21.10
2012,05,25,15,43,21.10
2012,05,25,15,44,21.10
2012,05,25,15,45,21.10
2012,05,25,15,46,21.20
2012,05,25,15,47,21.30
2012,05,25,15,48,21.50
2012,05,25,15,49,21.60
2012,05,25,15,50,21.70
2012,05,25,15,51,21.70
2012,05,25,15,52,21.80
2012,05,25,15,53,21.80
2012,05,25,15,54,21.90
2012,05,25,15,55,21.90
2012,05,25,15,56,22.00
2012,05,25,15,57,22.10
2012,05,25,15,58,22.20
2012,05,25,15,59,22.30
2012,05,25,16,00,22.40
2012,05,25,16,01,22.40
2012,05,25,16,02,22.50
2012,05,25,16,03,22.60
2012,05,25,16,04,22.70
2012,05,25,16,05,22.70
2012,05,25,16,06,22.70
2012,05,25,16,07,22.70
2012,05,25,16,08,22.70
2012,05,25,16,09,22.60
2012,05,25,16,10,22.60
2012,05,25,16,11,22.60
2012,05,25,16,12,22.50
2012,05,25,16,13,22.40
2012,05,25,16,14,22.20
2012,05,25,16,15,22.00
2012,05,25,16,16,21.90
2012,05,25,16,17,21.90
2012,05,25,16,18,21.80
2012,05,25,16,19,21.80
2012,05,25,16,20,21.80
2012,05,25,16,21,21.70
2012,05,25,16,22,21.70
2012,05,25,16,23,21.70
2012,05,25,16,24,21.70
2012,05,25,16,25,21.60
2012,05,25,16,26,21.50
2012,05,25,16,27,21.50
2012,05,25,16,28,21.50
2012,05,25,16,29,21.60
2012,05,25,16,30,21.60
2012,05,25,16,31,21.80
2012,05,25,16,32,21.80
2012,05,25,16,33,21.80
2012,05,25,16,34,21.70
2012,05,25,16,35,21.70
2012,05,25,16,36,21.60
2012,05,25,16,37,21.60
2012,05,25,16,38,21.60
2012,05,25,16,39,21.50
2012,05,25,16,40,21.40
2012,05,25,16,41,21.30
2012,05,25,16,42,21.30
2012,05,25,16,43,21.40
2012,05,25,16,44,21.50
2012,05,25,16,45,21.50
2012,05,25,16,46,21.50
2012,05,25,16,47,21.50
2012,05,25,16,48,21.60
2012,05,25,16,49,21.60
2012,05,25,16,50,21.60
2012,05,25,16,51,21.60
2012,05,25,16,52,21.60
2012,05,25,16,53,21.70
2012,05,25,16,54,21.80
2012,05,25,16,55,21.90
2012,05,25,16,56,22.00
2012,05,25,16,57,22.10
2012,05,25,16,58,22.10
2012,05,25,16,59,22.10
2012,05,25,17,00,22.10
2012,05,25,17,01,22.00
2012,05,25,17,02,21.90
2012,05,25,17,03,21.80
2012,05,25,17,04,21.60
2012,05,25,17,05,21.50
2012,05,25,17,06,21.30
2012,05,25,17,07,21.20
2012,05,25,17,08,21.10
2012,05,25,17,09,21.10
2012,05,25,17,10,21.10
2012,05,25,17,11,21.10
2012,05,25,17,12,21.10
2012,05,25,17,13,21.20
2012,05,25,17,14,21.20
2012,05,25,17,15,21.30
2012,05,25,17,16,21.30
2012,05,25,17,17,21.30
2012,05,25,17,18,21.30
2012,05,25,17,19,21.20
2012,05,25,17,20,21.20
2012,05,25,17,21,21.20
2012,05,25,17,22,21.20
2012,05,25,17,23,21.10
2012,05,25,17,24,21.00
2012,05,25,17,25,20.90
2012,05,25,17,26,20.90
2012,05,25,17,27,20.90
2012,05,25,17,28,21.00
2012,05,25,17,29,21.00
2012,05,25,17,30,21.10
2012,05,25,17,31,21.10
2012,05,25,17,32,21.20
2012,05,25,17,33,21.30
2012,05,25,17,34,21.30
2012,05,25,17,35,21.30